Location: Aytr�
(46.1357°N, 1.1145°W)
Time: 00:17:34
(UTC+00:00)

ISS - Pass Details

Date: 22 September 2021
Orbit: 417 x 423 km, 51.6° (Epoch: 24 October)

Event Time Altitude Azimuth Distance (km) Brightness Sun altitude
Rises 18:48:54 0° 255° (WSW) 2,356 1.4 -8.9°
Reaches altitude 10° 18:51:01 10° 260° (W) 1,495 0.4 -9.3°
Maximum altitude 18:54:19 54° 339° (NNW) 514 -3.1 -9.9°
Drops below altitude 10° 18:57:39 10° 58° (ENE) 1,504 -1.4 -10.4°
Enters shadow 18:57:48 - 59° (ENE) 1,565 -1.3 -10.5°
